Temp
0 0 0 0 1 1 1 2 3 4 5 5 6 6 6 6 6 6 6 5 4 6 6 7 7 6 7 7 7 7 7 7 7 7 7 7 7 7 6 6 7 7 7
-4 -2 -1 -0 -0 0 0 0 0 1 3 4 4 5 5 5 6 6 6 6 4 5 6 7 7 6 7 6 7 7 7 7 7 7 7 7 7 7 7 7 7 7 7
-4 -4 -3 -2 -2 -1 -1 -0 -0 -0 -0 1 2 3 3 4 5 5 6 6 6 5 5 5 7 7 6 6 6 6 7 7 7 7 6 6 7 6 5 8 7 7 7
-5 -5 -5 -3 -3 -2 -2 -2 -1 -1 -1 -1 0 1 2 2 3 4 5 6 6 6 4 4 5 5 6 6 6 6 6 6 6 6 7 7 6 6 4 4 7 7 7
-5 -5 -5 -4 -4 -3 -3 -2 -2 -1 -1 -1 -1 -0 0 1 2 3 3 4 5 6 5 4 4 4 4 5 5 6 6 6 6 5 5 7 7 6 6 5 4 5 8
-5 -5 -5 -5 -6 -4 -3 -3 -3 -3 -2 -2 -1 -1 -1 0 0 1 2 3 3 4 5 4 4 4 3 5 5 5 5 6 6 6 5 5 6 7 6 6 6 6 4
-5 -6 -6 -6 -6 -6 -4 -3 -3 -3 -3 -2 -2 -2 -2 -1 -0 0 1 2 2 3 3 3 3 3 3 4 3 5 4 4 5 6 5 5 5 5 6 5 6 6 6
-6 -6 -6 -6 -6 -7 -6 -4 -4 -4 -4 -3 -3 -2 -2 -2 -1 -1 -0 0 1 2 2 3 3 3 2 3 4 3 3 5 4 5 4 4 5 4 4 5 5 5 6
-6 -6 -6 -7 -7 -7 -7 -4 -4 -4 -4 -4 -3 -4 -3 -3 -2 -2 -1 -0 0 1 1 2 2 2 2 3 2 4 2 2 3 4 4 4 5 5 4 4 5 5 5
-6 -6 -7 -7 -7 -7 -8 -7 -5 -5 -5 -4 -4 -4 -4 -4 -3 -3 -2 -1 -0 -0 0 1 1 1 2 2 1 2 2 2 1 2 3 4 4 4 4 4 4 5 5
-6 -7 -7 -7 -7 -7 -8 -8 -5 -5 -5 -5 -5 -4 -4 -4 -4 -4 -3 -2 -2 -1 0 0 0 1 1 2 2 2 3 2 2 2 2 3 4 4 4 4 5 5 5
-7 -7 -7 -7 -7 -7 -8 -7 -6 -5 -5 -5 -5 -5 -5 -4 -4 -4 -4 -4 -3 -2 -1 -0 0 0 0 1 1 2 2 2 2 2 1 2 3 3 4 3 5 4 4
-7 -7 -7 -7 -7 -8 -8 -7 -6 -5 -5 -5 -5 -5 -5 -5 -5 -4 -4 -4 -4 -4 -3 -2 -1 -0 -0 0 1 1 1 2 2 2 2 1 1 4 3 2 3 4 4
-7 -7 -7 -7 -8 -8 -7 -6 -6 -5 -5 -6 -6 -5 -5 -5 -5 -5 -4 -4 -4 -4 -4 -4 -3 -2 -1 -0 -0 0 1 1 2 2 3 2 1 1 1 2 2 4 4
-7 -7 -7 -8 -8 -8 -8 -7 -6 -5 -5 -5 -6 -6 -6 -5 -5 -5 -5 -5 -5 -4 -4 -4 -4 -4 -3 -2 -1 -1 -0 0 1 2 2 2 2 2 2 3 3 2 3
-6 -7 -7 -8 -8 -8 -8 -8 -6 -6 -6 -6 -6 -6 -6 -6 -6 -5 -5 -5 -5 -5 -5 -5 -4 -4 -4 -3 -3 -3 -2 -1 -0 1 1 1 1 1 1 2 2 2 2
-7 -7 -7 -8 -8 -9 -9 -8 -7 -7 -7 -7 -7 -7 -7 -7 -7 -7 -6 -6 -6 -6 -6 -6 -5 -5 -5 -5 -5 -5 -4 -3 -2 -1 0 0 0 1 1 2 1 2 2
-7 -7 -7 -8 -9 -9 -8 -9 -8 -7 -7 -7 -7 -7 -7 -7 -7 -7 -7 -7 -7 -7 -7 -6 -6 -6 -6 -5 -5 -5 -5 -5 -5 -4 -2 -1 -0 -0 0 1 1 1 1
-7 -8 -8 -8 -9 -9 -9 -8 -8 -8 -8 -8 -8 -8 -8 -8 -8 -8 -8 -8 -8 -8 -7 -7 -7 -7 -7 -6 -6 -6 -5 -5 -5 -5 -5 -4 -2 -1 -1 0 1 1 1
-7 -8 -8 -8 -9 -9 -9 -9 -8 -8 -8 -8 -8 -8 -8 -8 -8 -8 -8 -8 -8 -8 -8 -8 -7 -7 -7 -7 -6 -6 -6 -6 -5 -5 -5 -5 -5 -4 -3 -2 -1 0 1
-8 -8 -8 -8 -8 -9 -9 -10 -9 -9 -9 -8 -8 -9 -9 -9 -9 -9 -9 -9 -8 -8 -8 -8 -8 -8 -8 -7 -7 -7 -7 -6 -6 -5 -5 -5 -5 -6 -5 -5 -4 -2 -1
-8 -8 -8 -8 -8 -8 -9 -10 -10 -9 -9 -9 -9 -9 -9 -10 -10 -9 -9 -8 -8 -8 -8 -8 -8 -8 -8 -8 -8 -8 -7 -7 -7 -6 -6 -6 -5 -5 -5 -5 -5 -5 -4
-9 -9 -9 -9 -9 -9 -9 -9 -9 -9 -9 -9 -9 -10 -10 -10 -9 -9 -9 -8 -8 -8 -8 -8 -8 -8 -9 -9 -9 -8 -8 -8 -7 -7 -7 -6 -6 -6 -6 -6 -5 -5 -5
-10 -9 -9 -9 -9 -9 -9 -10 -10 -10 -9 -9 -10 -10 -10 -9 -9 -9 -9 -9 -9 -9 -9 -9 -9 -8 -9 -9 -9 -9 -9 -8 -8 -7 -7 -7 -7 -6 -6 -6 -6 -6 -6
-10 -10 -10 -10 -10 -9 -10 -10 -10 -10 -10 -10 -10 -10 -10 -10 -9 -9 -9 -9 -9 -9 -9 -9 -9 -9 -9 -9 -9 -9 -9 -9 -9 -8 -8 -7 -7 -7 -7 -6 -6 -6 -6
-10 -10 -10 -10 -10 -10 -10 -10 -10 -10 -10 -10 -10 -10 -10 -10 -10 -9 -9 -9 -9 -9 -9 -9 -9 -9 -9 -9 -10 -9 -9 -9 -9 -9 -8 -8 -7 -7 -7 -7 -6 -7 -7
Height
3181 3178 3175 3172 3170 3169 3167 3167 3167 3168 3169 3170 3171 3172 3173 3174 3176 3176 3174 3155 3166 3177 3179 3178 3182 3186 3190 3194 3197 3200 3203 3204 3206 3207 3208 3208 3208 3209 3209 3208 3208 3207 3207
3180 3177 3175 3173 3170 3167 3164 3162 3161 3160 3160 3162 3162 3163 3164 3164 3165 3164 3162 3162 3155 3167 3170 3167 3171 3176 3180 3184 3188 3191 3195 3198 3200 3201 3203 3203 3204 3203 3204 3205 3204 3204 3204
3179 3176 3173 3171 3168 3165 3162 3160 3157 3155 3154 3155 3154 3154 3154 3155 3155 3156 3155 3156 3159 3157 3135 3161 3160 3164 3170 3174 3179 3182 3185 3189 3192 3194 3197 3198 3198 3200 3200 3198 3200 3200 3200
3177 3175 3172 3169 3167 3164 3161 3158 3155 3152 3150 3149 3148 3147 3146 3147 3147 3147 3146 3146 3146 3142 3145 3138 3155 3153 3160 3164 3169 3173 3176 3179 3183 3185 3188 3191 3194 3194 3197 3198 3193 3195 3196
3177 3173 3171 3168 3165 3160 3158 3156 3153 3150 3147 3145 3143 3142 3140 3140 3139 3139 3139 3138 3138 3136 3134 3141 3141 3144 3152 3156 3159 3163 3166 3170 3174 3177 3179 3180 3186 3188 3188 3192 3195 3188 3189
3175 3172 3169 3167 3163 3158 3155 3153 3150 3147 3145 3142 3139 3137 3135 3134 3132 3130 3131 3131 3130 3130 3127 3126 3131 3137 3131 3144 3150 3153 3157 3160 3164 3166 3170 3173 3174 3178 3180 3182 3185 3187 3187
3171 3167 3164 3162 3159 3154 3151 3150 3147 3144 3142 3139 3136 3132 3129 3128 3127 3124 3123 3124 3124 3125 3125 3122 3124 3127 3127 3121 3137 3140 3146 3150 3152 3156 3160 3164 3166 3168 3170 3171 3175 3176 3179
3167 3164 3160 3158 3155 3151 3146 3145 3144 3142 3139 3136 3133 3130 3126 3122 3121 3119 3117 3116 3116 3117 3118 3119 3117 3119 3119 3124 3121 3124 3120 3134 3140 3144 3148 3153 3156 3159 3160 3163 3166 3166 3168
3163 3161 3158 3155 3151 3149 3145 3141 3140 3138 3135 3132 3129 3126 3123 3120 3116 3113 3112 3110 3108 3108 3109 3111 3111 3112 3112 3112 3114 3117 3115 3114 3130 3132 3136 3142 3146 3148 3150 3151 3155 3158 3157
3161 3157 3155 3152 3148 3147 3144 3139 3137 3134 3131 3129 3126 3123 3120 3117 3113 3109 3106 3104 3103 3101 3101 3102 3103 3104 3104 3104 3104 3108 3109 3106 3113 3120 3126 3130 3135 3137 3139 3141 3143 3145 3148
3159 3155 3152 3150 3148 3145 3141 3137 3133 3131 3128 3125 3122 3120 3117 3114 3111 3107 3102 3098 3097 3095 3094 3093 3094 3096 3097 3098 3099 3100 3099 3101 3100 3106 3111 3118 3123 3126 3127 3130 3133 3134 3136
3157 3153 3150 3148 3146 3143 3139 3135 3131 3128 3125 3122 3119 3116 3113 3110 3107 3104 3101 3096 3092 3089 3087 3085 3084 3085 3087 3089 3091 3090 3090 3092 3093 3094 3094 3103 3110 3112 3116 3120 3121 3123 3125
3154 3151 3148 3145 3142 3139 3135 3131 3127 3124 3121 3118 3115 3112 3109 3106 3103 3100 3096 3093 3090 3086 3082 3079 3076 3075 3075 3079 3082 3083 3083 3082 3083 3086 3084 3090 3087 3090 3100 3101 3106 3106 3107
3151 3148 3145 3142 3138 3135 3131 3127 3123 3120 3117 3114 3110 3108 3105 3101 3098 3095 3092 3088 3085 3082 3079 3075 3071 3068 3066 3068 3071 3073 3074 3075 3076 3077 3079 3080 3080 3080 3082 3078 3089 3091 3092
3148 3145 3141 3138 3135 3131 3127 3123 3119 3116 3112 3109 3105 3102 3099 3096 3094 3091 3088 3084 3081 3077 3074 3071 3069 3065 3061 3059 3059 3059 3062 3063 3065 3067 3068 3070 3071 3073 3072 3073 3074 3079 3081
3144 3141 3137 3134 3130 3126 3122 3118 3114 3111 3107 3104 3100 3096 3093 3090 3087 3084 3081 3079 3076 3073 3069 3066 3063 3061 3058 3055 3052 3049 3048 3050 3052 3054 3056 3057 3058 3059 3061 3064 3066 3066 3067
3138 3136 3133 3129 3125 3120 3117 3113 3109 3106 3103 3099 3095 3092 3088 3085 3082 3078 3075 3072 3070 3067 3065 3061 3058 3056 3052 3051 3047 3043 3039 3038 3039 3040 3042 3043 3043 3043 3046 3049 3051 3054 3057
3133 3131 3128 3124 3120 3115 3112 3108 3105 3101 3098 3094 3091 3087 3083 3080 3077 3073 3070 3067 3064 3061 3058 3056 3053 3051 3047 3045 3042 3039 3035 3031 3029 3028 3027 3028 3028 3028 3030 3032 3035 3040 3043
3128 3124 3121 3118 3115 3111 3106 3103 3100 3096 3093 3089 3085 3082 3079 3075 3072 3068 3065 3061 3058 3056 3053 3050 3047 3044 3041 3037 3036 3033 3030 3027 3024 3021 3018 3016 3015 3014 3014 3016 3019 3023 3026
3123 3119 3115 3112 3106 3104 3101 3096 3093 3089 3086 3083 3080 3076 3073 3070 3066 3063 3059 3055 3051 3048 3045 3043 3041 3038 3034 3029 3027 3025 3022 3019 3017 3014 3010 3008 3005 3003 3000 2997 3001 3005 3008
3114 3112 3109 3104 3101 3096 3092 3088 3086 3082 3079 3076 3073 3069 3066 3062 3058 3055 3052 3048 3043 3040 3037 3034 3031 3029 3026 3022 3018 3015 3012 3010 3008 3005 3002 3000 2997 2995 2992 2986 2985 2986 2990
3102 3100 3098 3096 3092 3088 3082 3080 3078 3075 3071 3068 3065 3062 3058 3055 3051 3047 3044 3041 3036 3032 3028 3024 3020 3017 3014 3012 3010 3006 3003 3001 2997 2996 2993 2990 2987 2985 2983 2980 2974 2973 2973
3091 3089 3087 3085 3084 3079 3072 3070 3069 3067 3064 3061 3058 3054 3051 3048 3044 3040 3037 3033 3029 3025 3020 3015 3010 3006 3003 3000 2997 2996 2993 2990 2987 2985 2983 2981 2977 2974 2972 2970 2967 2963 2960
3082 3081 3077 3075 3074 3070 3066 3061 3060 3059 3056 3053 3050 3047 3044 3040 3037 3033 3030 3026 3022 3018 3013 3008 3002 2997 2992 2989 2985 2983 2981 2979 2976 2973 2971 2970 2968 2965 2962 2960 2957 2954 2951
3072 3070 3068 3065 3063 3060 3056 3054 3051 3050 3048 3045 3042 3039 3036 3033 3029 3026 3023 3019 3016 3011 3006 3001 2994 2988 2983 2979 2975 2971 2968 2966 2964 2960 2958 2957 2954 2952 2951 2949 2947 2943 2940
3063 3060 3058 3056 3052 3048 3046 3044 3043 3041 3039 3036 3034 3030 3028 3025 3021 3018 3015 3012 3007 3003 2998 2993 2987 2982 2975 2968 2963 2960 2956 2953 2950 2947 2945 2943 2941 2939 2937 2937 2936 2934 2931
Wind_Speed
12 15 17 19 19 17 18 22 27 37 40 40 39 37 37 37 35 37 44 46 41 33 39 37 36 35 36 36 36 34 31 31 27 27 25 24 23 22 21 21 19 14 14
14 12 12 15 17 18 18 18 19 24 32 40 40 41 40 39 41 42 42 41 40 37 44 44 42 40 40 40 39 39 36 34 33 32 30 28 27 26 22 22 24 20 17
13 14 12 12 14 16 17 18 19 18 22 28 35 37 39 41 43 43 46 46 43 48 39 46 47 46 44 45 44 42 42 39 37 36 34 32 31 24 24 23 18 19 18
13 14 14 15 15 13 15 17 18 19 19 20 29 29 35 37 39 42 43 47 51 54 44 40 45 45 51 50 49 47 46 44 40 40 39 36 33 28 17 19 26 22 21
17 17 17 17 19 20 19 18 18 21 22 21 21 28 31 32 35 37 39 42 49 54 55 32 40 43 53 50 54 50 50 48 45 42 42 42 36 35 37 31 19 30 24
19 20 18 18 17 22 23 24 24 22 22 25 25 22 28 32 33 36 37 39 40 45 48 50 46 47 44 46 39 54 54 51 49 48 45 44 44 39 39 39 38 36 29
20 20 19 16 19 20 26 25 26 24 23 24 25 26 24 27 32 35 37 37 39 39 39 42 46 47 44 42 62 44 58 51 54 51 49 47 46 45 43 42 41 39 36
16 17 16 15 18 18 21 24 25 22 23 23 24 24 25 25 26 32 36 37 37 38 37 38 38 36 38 41 61 65 37 44 57 51 50 48 48 46 47 46 45 45 44
14 15 17 17 14 15 16 21 22 21 20 21 23 23 22 25 25 27 30 36 39 37 37 36 34 33 32 35 38 46 45 42 47 46 46 45 46 47 47 48 49 49 50
14 15 15 18 12 14 14 17 19 21 21 21 22 24 22 22 24 25 26 29 35 39 39 37 35 32 34 31 34 31 37 43 51 49 48 38 44 45 40 41 46 51 53
13 15 15 14 14 14 15 17 22 21 21 22 22 22 23 22 22 24 25 26 28 34 40 41 38 36 34 35 36 35 35 38 37 49 51 49 45 51 46 42 45 48 53
14 15 15 14 14 15 16 17 23 23 22 22 23 24 23 23 24 24 25 25 26 27 30 37 41 40 39 37 36 37 36 37 40 37 54 72 68 65 56 50 49 51 47
15 15 16 16 16 17 19 20 24 27 26 26 25 26 25 25 25 25 25 25 25 24 25 28 35 39 41 40 40 40 40 41 43 43 46 45 55 47 50 56 63 55 60
15 15 16 16 17 19 21 24 26 27 27 27 28 27 27 27 27 27 26 26 27 27 25 23 26 35 41 42 43 43 45 46 46 45 45 44 43 46 50 55 56 62 49
17 17 17 18 19 20 21 24 26 29 30 30 29 28 27 26 25 26 25 25 25 26 27 28 26 25 34 40 41 44 47 48 50 51 49 50 47 50 47 48 48 51 55
18 19 20 20 21 20 22 23 28 29 29 28 29 29 29 27 26 26 26 26 25 25 25 25 28 27 26 27 33 36 42 49 52 54 55 55 55 53 51 50 49 50 53
21 21 22 23 23 22 21 23 25 26 27 27 28 28 28 28 27 27 27 27 26 24 24 24 24 26 28 26 27 29 32 36 42 51 57 58 59 59 58 57 55 54 51
21 21 22 24 23 23 23 24 26 26 27 27 26 26 26 27 27 26 27 27 27 26 25 24 25 25 26 27 26 27 29 31 32 35 42 56 60 61 62 62 59 58 57
22 24 25 26 27 26 27 29 28 28 27 27 26 26 26 27 28 29 29 28 29 28 28 28 27 28 29 30 28 28 27 29 30 29 30 36 45 58 63 64 64 63 62
24 26 25 26 28 29 28 31 32 31 30 29 28 29 30 32 31 31 33 33 33 32 32 33 33 33 33 35 34 33 33 31 30 30 29 28 31 39 49 58 63 65 65
30 30 30 29 29 32 33 30 32 32 31 30 30 32 34 36 34 32 32 33 36 38 37 39 39 40 39 39 39 39 38 37 35 34 32 33 30 27 38 47 49 55 62
33 32 32 32 35 31 27 32 31 34 33 31 32 34 33 30 29 29 28 27 28 31 34 36 38 41 43 43 41 42 42 41 40 38 36 36 35 32 29 33 46 49 49
31 27 28 29 29 34 31 39 31 34 33 32 33 29 29 29 28 27 27 28 29 31 34 36 37 39 38 40 41 40 42 42 43 42 40 37 37 37 35 32 30 39 49
30 30 31 29 29 29 34 40 33 34 33 32 30 29 29 28 26 25 25 26 28 31 34 37 39 39 39 38 37 39 38 40 43 44 43 40 38 36 36 36 34 34 32
31 30 31 29 28 29 33 39 33 34 32 30 29 30 29 26 24 22 23 24 26 29 33 36 40 43 43 40 40 40 38 38 39 42 43 41 40 38 34 33 34 34 34
29 30 29 30 32 37 37 34 32 33 32 30 29 29 28 26 24 25 26 27 30 30 33 36 41 44 45 44 42 41 41 39 37 39 40 40 39 39 37 34 32 32 32
Wind_Direction
339 332 330 328 321 313 297 277 265 257 251 248 249 251 252 251 251 248 252 261 235 239 239 235 234 236 239 242 247 244 244 251 249 253 255 263 267 267 269 274 273 263 258
2 345 328 321 323 325 319 314 302 274 260 253 253 250 253 253 252 250 253 256 256 235 243 237 236 238 240 241 242 247 247 246 252 254 258 262 267 271 269 269 274 273 268
1 356 337 332 329 330 329 323 320 314 284 264 255 255 254 255 254 255 254 255 253 250 246 238 235 235 239 242 243 243 247 248 249 253 255 261 265 272 280 274 261 274 269
350 349 337 325 326 327 330 327 324 321 314 289 265 262 256 257 259 257 257 254 255 260 267 251 240 241 238 241 242 244 245 247 248 253 252 252 257 253 250 270 279 271 272
337 332 332 314 315 311 322 328 322 313 317 319 294 266 264 261 261 261 259 258 253 256 261 270 258 241 250 243 243 242 244 246 247 247 255 256 249 253 258 250 256 282 272
325 322 320 314 316 301 307 325 327 319 313 312 313 297 270 268 266 264 264 261 260 259 261 262 264 257 260 237 245 246 244 245 245 247 246 252 258 252 254 258 258 254 260
324 325 319 313 308 308 302 317 324 320 315 313 310 309 302 277 272 271 267 265 262 263 263 268 267 262 270 254 235 247 246 244 244 244 248 247 251 257 259 261 260 263 262
336 337 343 322 307 309 310 307 319 318 311 312 311 308 309 307 290 277 274 273 270 267 264 264 270 267 266 256 269 251 246 240 240 244 243 247 250 252 257 258 261 264 262
345 344 344 326 319 314 321 308 313 313 309 307 309 315 313 311 309 299 285 276 274 273 271 269 264 265 269 265 259 261 255 242 239 242 244 247 248 251 255 258 259 260 262
339 341 345 322 341 322 317 318 314 313 312 310 307 310 318 319 315 311 302 289 279 278 276 272 271 264 261 259 257 263 268 261 253 244 245 244 244 246 250 257 261 260 260
332 337 339 334 334 329 319 324 318 321 317 312 311 307 310 314 316 319 314 305 294 282 278 276 273 270 262 256 254 249 256 257 253 256 244 245 251 252 250 250 253 258 262
324 325 328 326 324 323 319 321 322 324 323 321 318 316 312 311 314 312 312 315 309 299 287 277 276 272 268 259 257 252 251 250 256 250 252 247 255 254 252 254 255 255 261
317 318 319 320 317 316 315 315 316 317 320 320 318 317 316 315 312 310 308 308 312 314 305 293 282 278 272 265 259 256 253 252 253 259 269 265 269 250 263 262 258 264 259
309 311 315 314 312 313 315 316 317 318 318 318 315 314 313 311 311 312 309 307 306 309 314 314 305 287 280 274 265 259 255 254 253 249 251 256 258 265 259 244 251 254 267
297 300 305 309 309 309 309 311 315 316 316 318 320 316 310 306 306 305 307 308 308 307 307 309 311 313 289 280 276 267 260 256 253 254 250 250 249 251 257 260 267 262 269
290 295 297 301 304 303 302 301 308 311 313 315 317 318 315 309 304 304 305 306 310 312 311 310 309 309 307 302 291 284 272 262 257 253 252 252 252 247 249 256 254 259 265
286 294 294 299 300 301 299 304 306 309 310 313 314 315 315 313 311 306 304 305 306 307 309 311 310 309 306 305 306 305 293 283 271 260 255 254 253 252 251 247 248 253 251
284 291 290 293 297 301 303 300 303 304 306 310 312 313 313 315 314 311 308 306 305 304 304 305 307 308 306 304 303 298 302 301 293 281 269 259 257 256 253 251 250 249 252
279 290 292 294 296 296 300 302 302 300 302 305 307 308 311 312 312 312 310 306 303 303 302 302 302 303 304 301 306 304 298 295 295 296 292 278 266 261 260 255 252 250 250
288 288 287 285 285 293 292 297 303 300 299 300 301 303 306 307 304 303 303 303 303 302 301 300 299 299 299 299 299 302 303 300 296 291 293 292 285 273 268 264 259 255 252
284 284 284 282 280 285 282 287 300 300 295 298 299 302 305 305 305 305 302 299 299 299 299 297 296 294 294 294 294 296 296 297 298 297 294 290 286 289 274 273 269 264 258
283 278 277 278 283 275 270 279 293 298 295 297 301 304 303 305 308 311 313 314 313 311 311 309 303 295 289 287 287 289 290 292 292 294 295 295 294 293 281 280 273 270 267
288 284 283 277 270 264 265 278 287 294 294 298 302 301 301 304 308 311 315 318 319 318 318 317 316 310 303 291 285 283 284 286 287 288 289 292 292 292 293 285 283 278 272
286 281 281 278 270 267 269 274 283 290 291 297 297 297 299 301 304 309 316 322 326 326 326 324 320 316 311 307 295 286 284 284 284 283 284 286 287 285 285 286 285 280 283
289 282 279 278 271 262 261 268 282 287 289 292 293 297 300 301 303 309 316 323 329 330 331 330 326 321 315 309 305 299 292 287 285 283 281 281 283 283 280 280 282 284 283
293 286 279 277 266 261 263 271 282 283 285 288 291 296 297 299 301 304 310 317 320 324 329 329 329 327 320 312 307 302 298 294 289 284 283 281 280 281 281 278 275 276 281